METEOR 1-11

导读 | 星芒AI

METEOR 1-11 是苏联于1982年发射的一颗气象卫星,属于 METEOR 系列。该卫星主要用于气象观测,搭载了多种遥感仪器,能够收集云层、地表温度和大气参数等数据,为天气预报和气候研究提供支持。它运行在近地轨道,采用太阳同步轨道设计,确保全球范围的观测覆盖。METEOR 1-11 的成功运行标志着苏联在气象卫星技术上的重要进展,并为后续气象卫星的发展奠定了基础。

基本信息
目录编号:
5917
目录名称:
METEOR 1-11
国际标识:
1972-022A
轨道中心:
EARTH
卫星名称:
METEOR 1-11
卫星全名:
--
卫星状态:
在轨 (已飞行19571 天)
发射日期:
1972-03-30 UTC
国别 :
俄罗斯(独联体) (CIS)
星等 :
--
轨道信息
数据来源 国际轨道数据
星历时间: 2025-10-28T15:36:14+0800
1天前
查看轨道信息
半长轴: 7240.215km
偏心率: 0.0041881
轨道倾角: 81.226°
近地点辐角 263.861°
升交点赤经 151.027°
平近点角 95.778°
近地点: 831.757km
远地点: 892.403km
周期: 102.185分钟
每日圈数: 14.092096
详细信息
使用方式:
暂无
2D轨道图
3D轨道图
轨道高度分析图
轨道倾角分析图
轨道综合分析图
查看轨道综合分析图